Location: Newark
(3.0500°N, 36.0167°E)
Time: 12:15:01
(UTC+00:00)

Transit 2A Rocket - Pass Details

Date: 20 August 2019
Orbit: 592 x 911 km, 66.7° (Epoch: 16 September)

Event Time Altitude Azimuth Distance (km) Brightness Sun altitude
Rises 03:15:21 0° 355° (N) 2,823 8.1 -5.2°
Reaches altitude 10° 03:17:44 10° 4° (N) 1,913 7.3 -4.6°
Maximum altitude 03:21:36 34° 70° (ENE) 985 6.6 -3.7°
Drops below altitude 10° 03:25:32 10° 135° (SE) 1,944 7.6 -2.7°
Sets 03:27:58 0° 144° (SE) 2,876 8.3 -2.1°
